Location: Ermatingen
(47.6706°N, 9.0857°E)
Time: 01:43:13
(UTC+00:00)

Cosmos 1428 Rocket - Pass Details

Date: 30 November 2021
Orbit: 949 x 987 km, 82.9° (Epoch: 17 January)

Event Time Altitude Azimuth Distance (km) Brightness Sun altitude
Rises 04:31:31 0° 125° (SE) 3,639 8.5 -22.6°
Reaches altitude 10° 04:35:57 10° 95° (E) 2,690 8.0 -21.8°
Maximum altitude 04:37:57 12° 75° (ENE) 2,564 7.6 -21.5°
Drops below altitude 10° 04:39:57 10° 56° (NE) 2,690 7.4 -21.2°
Sets 04:44:21 0° 26° (NNE) 3,636 7.7 -20.4°
